Hourly Weather Roundup
Issued by NWS Central Illinois

Home | Current Version | Previous Version | Text Only | Print | Product List | Glossary On
Versions: 1 2 3 4 5 6 7 8 9 10 11 12 13 14 15 16 17 18 19 20 21 22 23 24 25 26 27 28 29 30 31 32 33 34 35 36 37 38 39 40 41 42 43 44 45 46 47 48 49 50
000
NZUS43 KILX 251710
HWRILX

AREA WEATHER ROUNDUP
NATIONAL WEATHER SERVICE, LINCOLN IL
1200 PM CDT MON JUL 25 2016


CITY           SKY/WX    TMP DP  RH WIND       PRES   REMARKS
BLOOMINGTON    CLOUDY    76  73  91 SW7       30.07R
CHAMPAIGN      CLOUDY    79  73  82 W7        30.05S HX  82
DANVILLE       CLOUDY    81  74  80 W6        30.02S HX  86
DECATUR        CLOUDY    82  72  71 NW5       30.05S HX  87
EFFINGHAM      CLOUDY    86  74  67 CALM      30.05F HX  95
FLORA          PTSUNNY   86  74  68 CALM      30.03F HX  94
GALESBURG      MOSUNNY   82  68  62 CALM      30.06R HX  85
JACKSONVILLE   CLOUDY    79  73  80 SW7       30.05S HX  82
LACON          CLOUDY    80  68  65 CALM      30.04R HX  83
LAWRENCEVILLE  PTSUNNY   85  73  67 CALM      30.03R HX  91
LITCHFIELD     NOT AVBL
$$


CITY           SKY/WX    TMP DP  RH WIND       PRES   REMARKS
LINCOLN        PTSUNNY   83  73  72 W3        30.04S HX  89
MACOMB         PTSUNNY   80  71  72 NE5       30.08S HX  83
MATTOON        CLOUDY    82  71  69 NW12      30.04S HX  86
MT CARMEL AP   CLOUDY    85  74  71 CALM      30.03S HX  92
OLNEY-NOBLE AP MOSUNNY   84  73  70 CALM      30.03F HX  91
PARIS          PTSUNNY   80  74  81 CALM      30.06R HX  85
PEORIA         CLOUDY    81  73  76 S7        30.05R HX  86
PONTIAC        PTSUNNY   82  72  71 CALM      30.05R HX  87
RANTOUL        NOT AVBL
ROBINSON       CLOUDY    85  71  61 W3        30.04S HX  90
SPRINGFIELD    CLOUDY    82  71  69 SW5       30.05S HX  86
TAYLORVILLE    CLOUDY    78  72  81 MISG      30.05F HX  81
$$

...REGIONAL REPORTS...


CITY           SKY/WX    TMP DP  RH WIND       PRES   REMARKS
CHICAGO O`HARE CLOUDY    85  64  49 N6        30.00S HX  86
KANKAKEE       CLOUDY    82  69  64 CALM      30.03R HX  85
MOLINE         MOSUNNY   85  64  49 N10       30.03R HX  86
MOUNT STERLING PTSUNNY   80  73  78 CALM      30.05F HX  83
MOUNT VERNON   PTSUNNY   90  75  62 CALM      30.01S HX 100
PITTSFIELD     CLOUDY    78  75  88 SW5       30.06F HX  81
QUINCY         CLOUDY    81  70  69 CALM      30.06S HX  84
ROCKFORD       MOSUNNY   85  65  51 N12       30.03R HX  86
$$


CITY           SKY/WX    TMP DP  RH WIND       PRES   REMARKS
BURLINGTON     MOSUNNY   82  70  66 N7        30.05R HX  86
CEDAR RAPIDS   SUNNY     81  66  60 NW9       30.06F HX  83
DES MOINES     MOSUNNY   86  60  41 VRB6      30.10R HX  86
KIRKSVILLE       N/A     82  66  58 N9        30.09R HX  84
OTTUMWA        CLOUDY    80  66  62 N9        30.08S HX  82
ST LOUIS       NOT AVBL
$$


CITY           SKY/WX    TMP DP  RH WIND       PRES   REMARKS
TERRE HAUTE    MOSUNNY   85  70  60 NE3       30.04R HX  89
EVANSVILLE     TSTM      81  73  76 S8G25     30.02S HX  86
INDIANAPOLIS   CLOUDY    84  66  54 NW5       30.04S HX  86
LAFAYETTE      PTSUNNY   83  74  74 SW8       30.01R HX  89
MADISON        MOSUNNY   82  64  54 NW9       30.03R HX  83
MILWAUKEE      MOSUNNY   85  62  46 N10       29.99F HX  85
$$





USA.gov is the U.S. government's official web portal to all federal, state and local government web resources and services.